Weather in Zion National Park

United States     37°11′22″N   113°00′22″W
temp.,
°C
wind,
m/s
gust,
m/s
humid.,
%
clouds,
%
prec.,
mm/h
press.,
hPa
HPBL,
m
25 may, wed
wed2500:00+14ne33235 0.0 101220
03:00+13ne332478 0.0 101316
06:00+12ne332678 0.0 101418
09:00+18ene01193 0.0 1014481
12:00+23ssw32160 0.0 10131714
15:00+26sw55140 0.0 10102301
18:00+27wsw65140 0.0 10092172
21:00+20nw23211 0.0 101012
26 may, thu
thu2600:00+18ne33225 0.0 101215
03:00+17ne332153 0.0 101211
06:00+15ene322327 0.0 101311
09:00+22ese11168 0.0 1013329
12:00+27sw451336 0.0 10122247
15:00+29w771247 0.0 10103354
18:00+29wsw891112 0.0 10083789
21:00+22w46165 0.0 101068
27 may, fri
fri2700:00+18se2220100 0.0 101211
03:00+16e22286 0.0 101211
06:00+14ese223412 0.0 101311
09:00+21s2424100 0.0 1013815
12:00+26sw69175 0.0 10112627
15:00+28wsw111211100 0.0 10093384
18:00+26wsw121311100 0.0 10073018
21:00+21ssw591592 0.0 1008113
28 may, sat
sat2800:00+16sse1222100 0.0 100811
03:00+15ese222471 0.0 100711
06:00+13e2229100 0.0 100711
09:00+20ssw48215 0.0 10061322
12:00+24wsw1113171 0.0 10042378
15:00+24sw13131943 0.0 10012503
18:00+24wsw13162181 0.0 9993314
21:00+21sw14172687 0.0 9981630
29 may, sun
sun2900:00+16sw353853 0.0 999262
03:00+12sse11525 0.0 99911
06:00+10wnw22565 0.0 100011
09:00+15wsw45475 0.0 1000916
12:00+18wsw111221100 0.0 9992530
15:00+17wnw8922100 0.1 9982832
18:00+15wnw51122100 0.1 9972231
21:00+11nnw45170 0.0 99952